Regional Weather Roundup
Issued by NWS Columbia, SC

Home | Current Version | Previous Version | Text Only | Print | Product List | Glossary On
Versions: 1 2 3 4 5 6 7 8 9 10 11 12 13 14 15 16 17 18 19 20 21 22 23 24 25 26 27 28 29 30 31 32 33 34 35 36 37 38 39 40 41 42 43 44 45 46 47 48 49 50
000
ASUS42 KCAE 241510
RWRCAE
REGIONAL WEATHER ROUNDUP
NATIONAL WEATHER SERVICE COLUMBIA SC
1100 AM EDT THU JUL 24 2014

NOTE: "FAIR" INDICATES FEW OR NO CLOUDS BELOW 12,000 FEET WITH NO
SIGNIFICANT WEATHER AND/OR OBSTRUCTIONS TO VISIBILITY.

NOT ALL STATIONS ARE QUALITY CONTROLLED BY THE NATIONAL
WEATHER SERVICE. USE DATA WITH CAUTION...ESPECIALLY
DEWPOINT OBSERVATIONS.

SCZ001>056-GAZ040-063>065-077-241600-
...UPSTATE SOUTH CAROLINA...

CITY           SKY/WX    TMP DP  RH WIND       PRES   REMARKS
ANDERSON       PTSUNNY   82  71  69 W9        29.98S
LIBERTY        FAIR      80  80 100 SW6       29.98S
SPARTANBURG    FAIR      82  72  69 W7        29.97S
CLEMSON        PTSUNNY   82  70  66 SW6       29.99S
GREENVILLE     PTSUNNY   81  71  71 SW7       29.98F
GREENWOOD      MOSUNNY   85  71  63 VRB7      29.99R
GREER          PTSUNNY   82  73  74 VRB3      29.96S
ROCK HILL      PTSUNNY   83  71  67 VRB7      29.96F
CHESTER        FAIR      86  73  66 CALM      29.97R
LAURENS        FAIR      88  72  58 W3        29.97F


...CENTRAL SOUTH CAROLINA...

CITY           SKY/WX    TMP DP  RH WIND       PRES   REMARKS
COLUMBIA APT   MOSUNNY   91  70  49 W12       29.95S HX  96
COLUMBIA OWENS SUNNY     89  72  56 SW9       29.96S HX  96
DARLINGTON     SUNNY     86  75  70 W9        29.94S HX  95
FLORENCE       MOSUNNY   89  74  60 W10       29.94S HX  98
MCENTIRE ANGB  MOSUNNY   88  74  63 W8        29.96S HX  96
ORANGEBURG     SUNNY     87  73  62 SW12      29.97S
SUMTER SHAW    SUNNY     87  75  66 W10       29.93F HX  96
NEWBERRY       FAIR      84  73  70 W10       29.99S
AIKEN          FAIR      88  73  62 SW14G21   30.01S HX  96
BARNWELL       FAIR      90  73  58 W10       29.98F HX  98
MANNING        FAIR      88  77  70 SW6       29.96  HX 100
CAMDEN         FAIR      86  73  66 SW12      29.96S
LANCASTER      FAIR      84  75  74 W8        29.95F
WINNSBORO      FAIR      86  72  62 W7        29.96S


...EASTERN AND COASTAL SOUTH CAROLINA...

CITY           SKY/WX    TMP DP  RH WIND       PRES   REMARKS
MYRTLE BEACH   SUNNY     90  75  62 SW9       29.95S HX 100
N MYRTLE BCH   SUNNY     89  73  59 SW12G17   29.94F HX  97
CONWAY         FAIR      88  73  62 SW9       29.95S HX  96
MARION         FAIR      86  73  66 SW8G16    29.94S
HARTSVILLE     FAIR      88  57  35 SW12      29.95S
FLORENCE       MOSUNNY   89  74  60 W10       29.94S HX  98
DARLINGTON     SUNNY     86  75  70 W9        29.94S HX  95
CHARLESTON APT MOSUNNY   90  74  59 W10G16    29.98S HX  99
MOUNT PLEASANT FAIR      90  75  62 W7        29.98S HX 100
WALTERBORO     SUNNY     90  70  51 W7        29.99S HX  95
BEAUFORT       MOSUNNY   89  74  60 NW10      29.99S HX  98


...EASTERN GEORGIA...

CITY           SKY/WX    TMP DP  RH WIND       PRES   REMARKS
AUGUSTA BUSH F MOSUNNY   88  73  61 W8        29.97S HX  95
AUGUSTA DANIEL SUNNY     86  73  65 W7        29.99S
THOMSON        SUNNY     88  78  72 W6        30.03S HX 100
WASHINGTON     FAIR      86  79  79 W7        29.99R HX  99
CLAXTON        FAIR      88  77  70 SW5       30.01S HX 100
SYLVANIA       SUNNY     86  78  75 SW7       30.01S HX  98
STATESBORO     SUNNY     85  75  71 SW5       30.00S
SAVANNAH       MOSUNNY   87  74  64 W7        30.01R HX  95


...SOUTHERN NORTH CAROLINA...

CITY           SKY/WX    TMP DP  RH WIND       PRES   REMARKS
CHARLOTTE      CLOUDY    82  70  66 W5        29.96S
MONROE         MOSUNNY   82  71  69 W6        29.94S
WADESBORO      MOSUNNY   83  72  68 W5        29.93R
ROCKINGHAM       N/A     84  73  70 W12       29.93S
RUTHERFORDTON  CLOUDY    75  70  83 CALM      29.99R
ASHEVILLE      PTSUNNY   74  68  81 S5        30.03F

$$



USA.gov is the U.S. government's official web portal to all federal, state and local government web resources and services.